Regional Weather Roundup
Issued by NWS

Home | Current Version | Previous Version | Graphics & Text | Print | Product List | Glossary Off
Versions: 1 2 3 4 5 6 7 8 9 10 11 12 13 14 15 16 17 18 19 20 21 22 23 24 25 26 27 28 29 30 31 32 33 34 35 36 37 38 39 40 41 42 43 44 45 46 47 48 49 50

000
ASUS43 KMKX 060721
RWRWI

WISCONSIN REGIONAL WEATHER ROUNDUP
NATIONAL WEATHER SERVICE MILWAUKEE/SULLIVAN WI
100 AM CST TUE DEC 06 2016

NOTE: "FAIR" INDICATES FEW OR NO CLOUDS BELOW 12,000 FEET WITH NO
SIGNIFICANT WEATHER AND/OR OBSTRUCTIONS TO VISIBILITY.

WIZ001-002-006>008-014>016-023>028-060800-
NORTHWEST WISCONSIN

CITY           SKY/WX    TMP DP  RH WIND       PRES   REMARKS
SUPERIOR ARPT  CLOUDY    37  33  85 S14G21    29.60F WCI  28
ASHLAND        CLOUDY    37  30  75 MISG      29.67F
HAYWARD        LGT SNOW  35  30  82 S12       29.66F WCI  27
SIREN          CLOUDY    37  32  81 S10G21    29.63S WCI  30
CUMBERLAND     CLOUDY    32  32 100 S18G24    29.66S FOG     WCI  20
RICE LAKE      CLOUDY    33  32  94 SE16      29.70F FOG     WCI  23
CHETEK         LGT SNOW  33  32  96 S12       29.70F WCI  24
LADYSMITH      CLOUDY    35  31  84 SE12G17   29.73S WCI  27
EAU CLAIRE     LGT SNOW  34  31  88 S14       29.72F FOG     WCI  25
MENOMONIE      LGT SNOW  33  33  99 SE9       29.72S WCI  25
NEW RICHMOND   DRIZZLE   36  34  92 S14G26    29.68R WCI  27
OSCEOLA        CLOUDY    38  34  85 S13G20    29.69R WCI  30
$$

WIZ003>005-009-010-017-018-060800-
NORTH CENTRAL WISCONSIN

CITY           SKY/WX    TMP DP  RH WIND       PRES   REMARKS
MANITOWISH WTR PTCLDY    32  31  95 S12       29.72F WCI  23
ARBOR VITAE    PTCLDY    35  31  85 S8        29.74F WCI  29
WOODRUFF       PTCLDY    35  31  85 S8        29.74F WCI  29
RHINELANDER    PTCLDY    32  29  88 SE8       29.78S WCI  25
EAGLE RIVER    CLOUDY    32  31  96 SE5       29.77R WCI  27
LAND O LAKES   PTCLDY    33  31  90 S6        29.78S WCI  28
PHILLIPS       CLOUDY    33  29  86 S13       29.72F WCI  23
TOMAHAWK       CLEAR     30  28  94 SE3       29.77F FOG
MEDFORD        MOCLDY    30  28  94 SE10      29.75F FOG     WCI  21
MERRILL        PTCLDY    31  30  96 SE5       29.80S FOG     WCI  26
$$

WIZ029-030-035-036-043>047-060800-
CENTRAL WISCONSIN

CITY           SKY/WX    TMP DP  RH WIND       PRES   REMARKS
WAUSAU         PTCLDY    30  28  92 SE12      29.79S WCI  20
MOSINEE        PTCLDY    30  30 100 SE10      29.80F FOG     WCI  21
MARSHFIELD     CLOUDY    31  29  92 S13       29.78S FOG     WCI  21
STEVENS POINT  PTCLDY    29  29 100 SE5       29.83S FOG     WCI  24
WAUPACA        CLOUDY    34  32  92 S6        29.86R FOG     WCI  29
WAUTOMA        CLOUDY    32  30  92 SE10      29.85S WCI  24
WISC RAPIDS    CLOUDY    32  31  96 SE8       29.81F WCI  25
CAMP DOUGLAS   CLOUDY    32  30  93 SE7       29.81R WCI  26
$$

WIZ011>013-019>022-031-037>040-048>050-060800-
NORTHEAST WISCONSIN

CITY           SKY/WX    TMP DP  RH WIND       PRES   REMARKS
ANTIGO         CLOUDY    29  29 100 S9        29.81R FOG     WCI  21
SHAWANO        CLOUDY    34  32  92 CALM      29.87F FOG
OCONTO         CLOUDY    37  35  90 S7        29.88R WCI  32
STURGEON BAY   CLOUDY    39  37  92 SE13      29.88F WCI  31
GREEN BAY      CLOUDY    37  36  96 S8        29.88S FOG     WCI  31
MANITOWOC      CLOUDY    40  36  86 S15       29.89F WCI  32
APPLETON       CLOUDY    34  32  93 SE10      29.84F FOG     WCI  26
CLINTONVILLE   CLOUDY    32  32 100 SE6       29.85F FOG     WCI  26
OSHKOSH        CLOUDY    33  31  92 S12       29.86F FOG     WCI  24
$$

WIZ032>034-041-042-053>061-060800-
SOUTHWEST WISCONSIN

CITY           SKY/WX    TMP DP  RH WIND       PRES   REMARKS
LA CROSSE      CLOUDY    37  31  78 S13       29.79S WCI  29
SPARTA         MOCLDY    33  31  92 CALM      29.81S
VIROQUA        CLOUDY    32  31  99 S9        29.79R WCI  24
BOSCOBEL       CLOUDY    33  29  85 S5        29.85S WCI  29
PRAIRIE DU CHI CLOUDY    33  29  85 SE5       29.84R WCI  28
PLATTEVILLE    CLOUDY    31  31 100 S12       29.85R WCI  21
$$

WIZ056-057-062-063-064-067-068-060800-
SOUTH CENTRAL WISCONSIN

CITY           SKY/WX    TMP DP  RH WIND       PRES   REMARKS
REEDSBURG      CLOUDY    31  30  96 SE5       29.82F WCI  26
BARABOO/DELLS  CLOUDY    31  29  92 S16       29.82F FOG     WCI  20
LONE ROCK      CLOUDY    32  28  85 SE9       29.85S WCI  24
MINERAL POINT  CLOUDY    32  32 100 SE9       29.82S FOG     WCI  24
MADISON        CLOUDY    31  28  89 MISG      29.86F
MIDDLETON      NOT AVBL
WATERTOWN      CLOUDY    31  31 100 S7        29.89R FOG     WCI  24
MONROE         FOG       30  30 100 SE12      29.84F VSB 1/4 WCI  21
JANESVILLE     CLOUDY    32  32 100 SE8       29.88F FOG     WCI  25
$$

WIZ051-052-058>065-066-070>072-060800-
SOUTHEAST WISCONSIN

CITY           SKY/WX    TMP DP  RH WIND       PRES   REMARKS
MILWAUKEE      CLOUDY    37  33  85 S7        29.90S WCI  32
WAUKESHA       CLOUDY    32  32 100 SE9G17    29.90F FOG     WCI  24
MILWAUKEE/TIMM CLOUDY    34  32  93 SE8       29.91S WCI  27
RACINE         CLOUDY    37  33  85 S10       29.91S WCI  30
BURLINGTON     CLOUDY    32  31  98 CALM      29.90S FOG
KENOSHA        CLOUDY    35  33  92 S7        29.89  WCI  29
FOND DU LAC    CLOUDY    34  30  85 S10       29.88S WCI  26
SHEBOYGAN      CLOUDY    38  34  85 S10       29.90S WCI  31
WEST BEND      CLOUDY    34  34 100 S3        29.89F
JUNEAU         CLOUDY    31  29  94 S12       29.89S FOG     WCI  22
$$

LSZ147-162-060800-
LAKE SUPERIOR

STATION/POSITION TIME  TEMP    WIND        PRES    WAVE
                       AIR SEA DIR/SP/G            HT/PER
                 (UTC) (F)     (DEG/KT/KT) (MB)    (FT/S)
DEVILS ISLAND    0700   40     160/ 15/ 21 1004.9F
PORT WING        0630   38     160/  7/ 10 1004.4F
SAXON HARBOR     0640   40     170/  9/ 12 1005.4F
$$

LMZ867-665-643>646-060800-
LAKE MICHIGAN

STATION/POSITION TIME  TEMP    WIND        PRES    WAVE
                       AIR SEA DIR/SP/G            HT/PER
                 (UTC) (F)     (DEG/KT/KT) (MB)    (FT/S)
CHAMBERS ISLAND  0640   40     140/  5/  9 1011.9S
NORTHPORT PIER   0640   43     150/ 11/ 17 1012.5R
SISTER BAY       0638   41     170/ 11/ 14   N/A
ALGOMA LAKESHORE 0606          200/ 17/ 21   N/A
KEWAUNEE LAKESHO 0654   41     180/ 19/ 23 1011.8F
SHEBOYGAN LAKESH 0700   40     170/ 18/ 20 1012.7S
PORT WASHINGTON  0630   40     170/ 14/ 17 1013.9S
MILWAUKEE LAKESH 0700   38     200/  9/ 10   N/A
KENOSHA   LAKESH 0700   38     160/ 15/ 20 1012.2
$$

TC  - TEMPERATURE IN CELSIUS
VSB - VISIBILITY IN STATUTE MILES
WCI - WIND CHILL INDEX
HX  - HEAT INDEX




USA.gov is the U.S. government's official web portal to all federal, state and local government web resources and services.